[[{"header":{"parameterUnit":"m.s-1","parameterCategory":1,"la1":30.2991,"la2":30.254,"lo1":-89.0895,"lo2":-89.0444,"dy":0.0017,"dx":0.0017,"nx":28,"ny":28,"refTime":"2024-06-16T21:00:00:Z","depth":0,"parameterNumber":2,"parameterNumberName":"U-component_of_WINDS"},"data":[0,0,0,0,0,0,0,0,0,0,0,0,0,0,0,0,0,0,0,0,0,0,0,0,0,0,0,0,0,0,0,0,0,0,0,0,0,0,0,0,0,0,0,0,0,0,0,0,0,0,0,0,0,0,0,0,0,0,-10.2924,-10.2924,0,-10.2935,-10.2935,-10.2935,-10.2759,-10.2754,-10.275,-10.2745,-10.2753,-10.2758,-10.2762,0,0,0,0,0,0,0,0,0,0,0,0,0,-10.2747,-10.2751,-10.2924,-10.2924,-10.2924,-10.2935,-10.2935,-10.2935,-10.276,-10.2754,-10.2748,-10.2743,-10.2752,-10.2757,-10.2763,0,0,0,0,0,0,0,0,0,0,0,0,0,-10.2798,-10.2752,-10.2924,-10.2838,-10.283,-10.2935,-10.2935,-10.2935,-10.2761,-10.2754,-10.2747,-10.274,-10.275,-10.2757,-10.2764,-10.295,0,0,-10.2785,-10.2788,0,0,0,0,0,0,0,0,-10.2795,-10.2804,-10.285,-10.2844,-10.2836,-10.2838,-10.2876,-10.294,-10.2763,-10.2787,-10.2745,-10.2737,-10.2787,-10.2791,-10.2808,-10.295,-10.2951,-10.2786,-10.279,-10.2793,-10.2795,0,0,0,0,0,0,0,-10.2792,-10.2803,-10.2928,-10.2851,-10.2842,-10.2798,-10.2797,-10.2887,-10.2827,-10.2785,-10.2772,-10.2776,-10.2782,-10.2802,-10.2807,-10.2951,-10.2785,-10.2792,-10.2796,-10.2799,-10.3245,-10.3252,0,0,0,0,0,0,-10.28,-10.2801,-10.2927,-10.2928,-10.2797,-10.2807,-10.2806,-10.2845,-10.2826,-10.2816,-10.2782,-10.2768,-10.2794,-10.2799,-10.2807,-10.3021,-10.2793,-10.2799,-10.2803,-10.3237,-10.3246,-10.3255,0,0,0,0,0,0,-10.2797,-10.2813,-10.2927,-10.2861,-10.2872,-10.2818,-10.2862,-10.2849,-10.2868,-10.2824,-10.2812,-10.2814,-10.2788,-10.2797,-10.2916,-10.3019,-10.2803,-10.2809,-10.3228,-10.324,-10.3251,-10.3453,0,0,0,0,0,0,-10.2793,-10.2813,-10.2884,-10.2864,-10.2877,-10.3037,-10.2869,-10.2854,-10.2882,-10.2863,-10.285,-10.2841,-10.2783,-10.2906,-10.2923,-10.3025,-10.2814,-10.3218,-10.3233,-10.3247,-10.3436,-10.347,-10.3498,0,0,0,0,0,-10.2787,-10.294,-10.2888,-10.2904,-10.2964,-10.3043,-10.305,-10.2981,-10.2891,-10.296,-10.2932,-10.2842,-10.3007,-10.292,-10.2937,-10.3042,-10.3211,-10.3229,-10.3246,-10.3423,-10.3463,-10.3497,0,0,0,0,0,0,-10.297,-10.2935,-10.2878,-10.3029,-10.3041,-10.3013,-10.3098,-10.3026,-10.3062,-10.3043,-10.2956,-10.2954,-10.3086,-10.3077,-10.2981,-10.3221,-10.3093,-10.3114,-10.3221,-10.326,-10.329,-10.3287,-10.282,0,0,0,0,0,-10.3029,-10.3098,-10.3063,-10.3199,-10.3209,-10.3154,-10.3185,-10.3132,-10.314,-10.3143,-10.3123,-10.3133,-10.3187,-10.3224,-10.3271,-10.3437,-10.343,-10.3518,-10.3549,-10.3574,-10.3592,-10.3677,-10.3715,-10.3311,-10.3311,-10.3311,0,0,-10.3149,-10.3139,-10.3187,-10.3236,-10.3238,-10.331,-10.3158,-10.324,-10.3291,-10.3155,-10.3264,-10.3252,-10.3257,-10.34,-10.3461,-10.3395,-10.3703,-10.3596,-10.3617,-10.3621,-10.3698,-10.3737,-10.3771,-10.3323,-10.3321,-10.3319,0,0,-10.3403,-10.3405,-10.3517,-10.3524,-10.3531,-10.3493,-10.3522,-10.3506,-10.3492,-10.3602,-10.35,-10.3561,-10.3656,-10.3663,-10.3679,-10.3942,-10.3859,-10.396,-10.4118,-10.4202,-10.4234,-10.4262,-10.4351,-10.4385,-10.3979,-10.398,-10.398,0,-10.3551,-10.3655,-10.3584,-10.3673,-10.3696,-10.358,-10.3692,-10.3702,-10.3723,-10.3742,-10.3669,-10.3786,-10.3782,-10.3923,-10.3988,-10.4007,-10.4033,-10.3957,-10.4236,-10.4263,-10.4287,-10.4371,-10.4406,-10.3991,-10.399,-10.3989,-10.3988,0,-10.3835,-10.391,-10.4,-10.4025,-10.406,-10.416,-10.4103,-10.4147,-10.4092,-10.4063,-10.4176,-10.4168,-10.421,-10.4241,-10.4188,-10.4376,-10.4334,-10.4251,-10.4119,-10.4339,-10.4416,-10.4448,-10.4008,-10.4004,-10.4001,-10.3998,0,0,-10.4199,-10.4186,-10.422,-10.423,-10.4231,-10.4286,-10.4382,-10.4425,-10.4463,-10.4484,-10.4559,-10.4645,-10.4567,-10.4587,-10.4534,-10.4609,-10.4812,-10.4515,-10.4513,-10.4566,-10.5015,-10.5074,-10.5113,-10.4761,-10.4767,-10.4771,-10.5013,0,-10.4443,-10.4605,-10.4545,-10.471,-10.4777,-10.4669,-10.4752,-10.4761,-10.4738,-10.479,-10.4764,-10.4824,-10.472,-10.473,-10.48,-10.4773,-10.49,-10.4756,-10.4827,-10.483,-10.4823,-10.5154,-10.5216,-10.5444,-10.5043,-10.5048,-10.5052,0,-10.4747,-10.4781,-10.4954,-10.4943,-10.4969,-10.5045,-10.5079,-10.5132,-10.5141,-10.5118,-10.5142,-10.5074,-10.5166,-10.504,-10.5164,-10.5067,-10.5094,-10.5086,-10.5093,-10.5092,-10.495,-10.5157,-10.5515,-10.5548,-10.51,-10.5096,-10.5093,0,-10.4989,-10.5079,-10.5193,-10.5206,-10.5198,-10.5253,-10.5253,-10.5254,-10.5284,-10.5316,-10.5334,-10.5376,-10.5398,-10.5432,-10.5376,-10.529,-10.5507,-10.5377,-10.5488,-10.549,-10.5533,-10.553,-10.5896,-10.5561,-10.5561,-10.556,-10.5559,0,-10.5264,-10.5373,-10.5302,-10.5372,-10.5491,-10.5422,-10.5541,-10.5528,-10.5532,-10.5596,-10.5508,-10.557,-10.5496,-10.5551,-10.5509,-10.5616,-10.5628,-10.5611,-10.5597,-10.5615,-10.5617,-10.5627,-10.5607,-10.5569,-10.5567,-10.5565,-10.5564,0,-10.5552,-10.551,-10.5626,-10.5611,-10.561,-10.5698,-10.5683,-10.5746,-10.5719,-10.5802,-10.5817,-10.5774,-10.5834,-10.5784,-10.5843,-10.5815,-10.5956,-10.5923,-10.5953,-10.5941,-10.6054,-10.6042,-10.6434,-10.648,-10.6121,-10.6125,-10.6128,0,-10.5727,-10.5808,-10.5802,-10.584,-10.5845,-10.5907,-10.5938,-10.5875,-10.591,-10.5928,-10.5989,-10.6043,-10.6081,-10.6183,-10.6155,-10.62,-10.6164,-10.6298,-10.6169,-10.6185,-10.616,-10.6153,-10.6159,-10.6322,-10.6326,-10.633,-10.6333,0,-10.6041,-10.6016,-10.6065,-10.6107,-10.6147,-10.6177,-10.62,-10.6236,-10.6171,-10.6216,-10.6277,-10.6308,-10.6369,-10.6422,-10.6459,-10.6456,-10.6383,-10.6375,-10.6402,-10.6418,-10.643,-10.6421,-10.6018,-10.6364,-10.6361,-10.6359,-10.6357,-10.6356,-10.6273,-10.634,-10.6347,-10.6404,-10.6415,-10.6439,-10.6497,-10.6479,-10.6529,-10.6574,-10.6535,-10.6608,-10.6616,-10.6657,-10.6664,-10.672,-10.6663,-10.6704,-10.6713,-10.6723,-10.6737,-10.6428,-10.6727,-10.6726,-10.6725,-10.6724,-10.6724,0,-10.6578,-10.6578,-10.6632,-10.6667,-10.6712,-10.6645,-10.6667,-10.6708,-10.6774,-10.6788,-10.6829,-10.69,-10.6952,-10.6931,-10.6976,-10.7025,-10.6993,-10.7039,-10.7031,-10.7031,-10.6787,-10.6756,-10.7064,-10.7064,-10.7064,-10.7064,-10.7064,-10.7064,-10.6741,-10.685,-10.6828,-10.6941,-10.6939,-10.7012,-10.703,-10.7051,-10.7062,-10.7145,-10.7188,-10.7175,-10.7175,-10.722,-10.7264,-10.7257,-10.7275,-10.7333,-10.7313,-10.7083,-10.7049,-10.7017,-10.6987,-10.7339,-10.7339,-10.7551,-10.7554,-10.7555]},{"header":{"parameterUnit":"m.s-1","parameterCategory":1,"la1":30.2991,"la2":30.254,"lo1":-89.0895,"lo2":-89.0444,"dy":0.0017,"dx":0.0017,"nx":28,"ny":28,"refTime":"2024-06-16T21:00:00:Z","depth":0,"parameterNumber":3,"parameterNumberName":"V-component_of_WINDS"},"data":[0,0,0,0,0,0,0,0,0,0,0,0,0,0,0,0,0,0,0,0,0,0,0,0,0,0,0,0,0,0,0,0,0,0,0,0,0,0,0,0,0,0,0,0,0,0,0,0,0,0,0,0,0,0,0,0,0,0,2.0641,2.0642,0,2.0641,2.0641,2.0641,2.0643,2.0643,2.0643,2.0644,2.0638,2.0638,2.0638,0,0,0,0,0,0,0,0,0,0,0,0,0,2.0641,2.0641,2.0641,2.0642,2.0642,2.0641,2.0641,2.0641,2.0643,2.0643,2.0643,2.0644,2.0638,2.0638,2.0638,0,0,0,0,0,0,0,0,0,0,0,0,0,2.0641,2.0641,2.0641,2.0643,2.0643,2.0641,2.0641,2.0641,2.0643,2.0643,2.0644,2.0644,2.0638,2.0638,2.0638,2.0633,0,0,2.0636,2.0636,0,0,0,0,0,0,0,0,2.0641,2.0641,2.0643,2.0643,2.0643,2.0642,2.0639,2.0638,2.0643,2.0643,2.0644,2.0644,2.0639,2.0639,2.0638,2.0633,2.0632,2.0636,2.0636,2.0636,2.0636,0,0,0,0,0,0,0,2.0641,2.0641,2.0641,2.0643,2.0643,2.0642,2.0642,2.0639,2.064,2.0643,2.0643,2.0643,2.0639,2.0638,2.0638,2.0632,2.0636,2.0636,2.0636,2.0636,2.0625,2.0625,0,0,0,0,0,0,2.0642,2.0641,2.0641,2.0641,2.0642,2.0642,2.0642,2.0642,2.064,2.064,2.0643,2.0643,2.0639,2.0638,2.0638,2.0633,2.0636,2.0636,2.0636,2.0625,2.0625,2.0625,0,0,0,0,0,0,2.0641,2.0642,2.0641,2.0641,2.0641,2.0642,2.0642,2.0642,2.0642,2.0641,2.064,2.0643,2.0639,2.0638,2.0635,2.0633,2.0636,2.0635,2.0625,2.0625,2.0625,2.0624,0,0,0,0,0,0,2.0641,2.0641,2.064,2.0641,2.0641,2.0639,2.0642,2.0642,2.0642,2.0642,2.064,2.0639,2.0639,2.0635,2.0635,2.0633,2.0635,2.0625,2.0625,2.0625,2.0624,2.0624,2.0624,0,0,0,0,0,2.0641,2.0639,2.064,2.064,2.064,2.0639,2.0639,2.064,2.0642,2.064,2.064,2.064,2.0634,2.0635,2.0634,2.0632,2.0625,2.0625,2.0625,2.0624,2.0624,2.0624,0,0,0,0,0,0,2.0635,2.0639,2.064,2.0638,2.0639,2.064,2.0638,2.0639,2.0638,2.0638,2.0638,2.0637,2.0634,2.0633,2.0634,2.0629,2.063,2.0629,2.0629,2.0629,2.0629,2.0629,2.0635,0,0,0,0,0,2.0634,2.0634,2.0637,2.0634,2.0635,2.0636,2.0636,2.0637,2.0637,2.0636,2.0635,2.0634,2.0632,2.063,2.0628,2.0624,2.0624,2.0623,2.0622,2.0622,2.0622,2.0621,2.062,2.0624,2.0624,2.0624,0,0,2.063,2.0632,2.0632,2.0633,2.0634,2.0633,2.0636,2.0635,2.0634,2.0635,2.0633,2.0633,2.0631,2.0628,2.0626,2.0626,2.0621,2.0622,2.0622,2.0621,2.062,2.062,2.062,2.0624,2.0624,2.0624,0,0,2.0624,2.0625,2.0624,2.0626,2.0627,2.0629,2.0629,2.063,2.063,2.0628,2.063,2.0629,2.0625,2.0624,2.0623,2.062,2.062,2.0619,2.0617,2.0616,2.0616,2.0615,2.0615,2.0614,2.0618,2.0618,2.0618,0,2.0619,2.0619,2.0623,2.0623,2.0624,2.0627,2.0626,2.0626,2.0626,2.0626,2.0627,2.0624,2.0623,2.0621,2.062,2.0619,2.0619,2.0619,2.0616,2.0616,2.0615,2.0615,2.0614,2.0618,2.0618,2.0618,2.0618,0,2.0614,2.0614,2.0613,2.0616,2.0616,2.0615,2.0618,2.0618,2.062,2.0621,2.0619,2.0619,2.0618,2.0617,2.0617,2.0615,2.0615,2.0616,2.0617,2.0615,2.0614,2.0614,2.0618,2.0618,2.0618,2.0618,0,0,2.0601,2.0608,2.0608,2.061,2.0613,2.0613,2.0612,2.0614,2.0614,2.0614,2.0614,2.0612,2.0613,2.0612,2.0613,2.0612,2.0611,2.0613,2.0613,2.0613,2.0608,2.0608,2.0608,2.0611,2.0611,2.0611,2.0609,0,2.0596,2.0597,2.0601,2.06,2.0601,2.0606,2.0606,2.0607,2.0609,2.0609,2.061,2.0609,2.0611,2.0611,2.061,2.0611,2.061,2.0611,2.061,2.061,2.061,2.0607,2.0606,2.0604,2.0608,2.0608,2.0608,0,2.0589,2.0592,2.0592,2.0597,2.0598,2.0597,2.06,2.06,2.0602,2.0603,2.0604,2.0606,2.0605,2.0607,2.0606,2.0607,2.0607,2.0607,2.0607,2.0607,2.0609,2.0607,2.0603,2.0603,2.0608,2.0608,2.0608,0,2.0581,2.0584,2.0585,2.0587,2.0593,2.0593,2.0595,2.0597,2.0598,2.06,2.06,2.0601,2.0601,2.0602,2.0603,2.0604,2.0603,2.0604,2.0603,2.0603,2.0602,2.0602,2.0599,2.0602,2.0602,2.0602,2.0602,0,2.0574,2.0574,2.0582,2.0583,2.0583,2.0588,2.0588,2.059,2.0593,2.0594,2.0597,2.0597,2.06,2.06,2.0602,2.0601,2.0601,2.0602,2.0602,2.0602,2.0602,2.0601,2.0601,2.0602,2.0602,2.0602,2.0602,0,2.0564,2.057,2.0572,2.0578,2.058,2.058,2.0585,2.0585,2.0588,2.0589,2.059,2.0594,2.0595,2.0597,2.0598,2.0599,2.0598,2.0599,2.0598,2.0598,2.0598,2.0598,2.0594,2.0594,2.0597,2.0597,2.0597,0,2.0559,2.056,2.0568,2.0569,2.0572,2.0574,2.0576,2.0582,2.0583,2.0587,2.0587,2.0589,2.0591,2.0592,2.0594,2.0595,2.0596,2.0595,2.0596,2.0596,2.0597,2.0597,2.0597,2.0594,2.0594,2.0594,2.0594,0,2.055,2.0554,2.0557,2.0562,2.0565,2.0568,2.0572,2.0573,2.0579,2.058,2.0583,2.0585,2.0587,2.0589,2.0591,2.0592,2.0594,2.0594,2.0594,2.0593,2.0593,2.0594,2.0597,2.0594,2.0594,2.0594,2.0594,2.0594,2.0543,2.0545,2.0551,2.0555,2.0559,2.0563,2.0565,2.0569,2.0572,2.0575,2.0578,2.0581,2.0584,2.0587,2.0589,2.059,2.0591,2.059,2.059,2.059,2.059,2.0593,2.059,2.059,2.059,2.059,2.059,0,2.0535,2.054,2.0544,2.055,2.0554,2.0558,2.0562,2.0565,2.0567,2.0571,2.0574,2.0577,2.058,2.0583,2.0586,2.0586,2.0587,2.0587,2.0587,2.0587,2.0589,2.0589,2.0586,2.0586,2.0586,2.0586,2.0586,2.0586,2.0531,2.0534,2.0539,2.0544,2.0549,2.0553,2.0555,2.0559,2.0563,2.0567,2.057,2.0573,2.0577,2.058,2.0582,2.0583,2.0584,2.0583,2.0585,2.0586,2.0587,2.0587,2.0587,2.0584,2.0584,2.0582,2.0582,2.0582]}]]